Location: Newark
(53.7833°N, 9.4833°E)
Time: 00:09:24
(UTC+00:00)

Envisat - Pass Details

Date: 10 December 2019
Orbit: 764 x 766 km, 98.1° (Epoch: 19 January)

Event Time Altitude Azimuth Distance (km) Brightness Sun altitude
Rises 15:59:02 0° 133° (SE) 3,228 6.0 -7.9°
Reaches altitude 10° 16:01:31 10° 124° (SE) 2,305 5.2 -8.2°
Maximum altitude 16:06:01 33° 61° (ENE) 1,270 3.6 -8.8°
Drops below altitude 10° 16:10:33 10° 359° (N) 2,319 5.2 -9.4°
Sets 16:13:02 0° 350° (N) 3,249 6.1 -9.7°
